Погода в Дубовом Умёте

Россия / Самарская область     52°58′29″N   50°17′26″E
темп.,
°C
ветер,
м/с
пор.,
м/с
влажн.,
%
обл.,
%
осадки,
мм/ч
давл.,
гПа
погр.,
м
4 декабря, сб
сб401:00+3ююз71593100 0.1 1016495
04:00+3ююз81881100 0.1 1016540
07:00+3ююз9198382 0.0 1014510
10:00+3ююз10208843 0.0 1014616
13:00+4ююз112186100 0.0 1012716
16:00+4ююз101891100 1.4 1011927
19:00+4юз71396100 1.8 1011932
22:00+3зюз51098100 4.7 1012798
5 декабря, вс
вс501:000з3799100 3.0 1013277
04:000зсз3596100 4.6 1014392
07:00−1з3695100 0.4 1015428
10:00−2зсз359371 0.4 1017261
13:00−1зсз237695 0.0 1017442
16:00−3з1188100 0.0 101914
19:00−4сз119288 0.0 102010
22:00−4ссв1194100 0.0 102010
6 декабря, пн
пн601:00−4св119422 0.0 102113
04:00−4ссв2392100 0.0 102256
07:00−4св2490100 0.0 1022100
10:00−3св3586100 0.0 1024277
13:00−2всв3478100 0.0 1025393
16:00−2св3584100 0.0 1025291
19:00−3всв4789100 0.0 1027309
22:00−4всв389199 0.0 1028248
7 декабря, вт
вт701:00−5в489399 0.0 1028226
04:00−5в489137 0.0 1029226
07:00−6в4989100 0.0 1030251
10:00−5в51185100 0.0 1030305
13:00−4вюв51177100 0.0 1030341
16:00−4вюв51177100 0.0 1029329
19:00−3вюв51176100 0.0 1029326
22:00−2юв51287100 0.1 1028352
8 декабря, ср
ср801:000ююв51394100 0.0 1027349
04:00+1ююв51392100 0.0 1026333
07:00+1ююв61388100 0.0 1026311
10:00+2ююв51380100 0.0 1027373
13:00+2ююв51479100 0.0 1026425
16:00+1ююв61481100 0.0 1025362
19:000ююв61479100 0.0 1025362
22:000юв51379100 0.0 1025351